When you browse on this site, cookies collect data to enhance your experience and personalize the content and advertising you see.
Visit our Privacy Policy to learn more. By continuing to use the site, you agree to this use of cookies and data.
  • In Romania
  • List of Countries
  • For 7 days
  • Water Temperature
  • Weather Map
  • Weather Widgets
  • user-avatar
    Login

    Hourly Weather As-Salt

    Today, 22 August, Thursday

    Time Temperature Precipitation Wind Pressure Humidity
    00:00 +20°C° 0 mm 1 mps 710 mmHg 73%
    01:00 +20°C° 0 mm 1 mps 710 mmHg 75%
    02:00 +19°C° 0 mm 1 mps 710 mmHg 76%
    03:00 +19°C° 0 mm 1 mps 710 mmHg 77%
    04:00 +19°C° 0 mm 1 mps 710 mmHg 78%
    05:00 +18°C° 0 mm 1 mps 710 mmHg 79%
    06:00 +21°C° 0 mm 1 mps 710 mmHg 68%
    07:00 +24°C° 0 mm 1 mps 711 mmHg 57%
    08:00 +27°C° 0 mm 1 mps 711 mmHg 46%
    09:00 +29°C° 0 mm 2 mps 711 mmHg 40%
    10:00 +31°C° 0 mm 2 mps 711 mmHg 34%
    11:00 +34°C° 0 mm 2 mps 711 mmHg 28%
    12:00 +35°C° 0 mm 3 mps 711 mmHg 24%
    13:00 +36°C° 0 mm 3 mps 710 mmHg 21%
    14:00 +38°C° 0 mm 3 mps 710 mmHg 17%
    15:00 +37°C° 0 mm 4 mps 710 mmHg 22%
    16:00 +35°C° 0 mm 5 mps 709 mmHg 27%
    17:00 +34°C° 0 mm 5 mps 709 mmHg 31%
    18:00 +30°C° 0 mm 4 mps 709 mmHg 41%
    19:00 +28°C° 0 mm 3 mps 709 mmHg 50%
    20:00 +25°C° 0 mm 2 mps 709 mmHg 60%
    21:00 +24°C° 0 mm 2 mps 709 mmHg 62%
    22:00 +23°C° 0 mm 1 mps 709 mmHg 63%
    23:00 +23°C° 0 mm 1 mps 709 mmHg 65%

    Tomorrow, 23 August, Friday

    Time Temperature Precipitation Wind Pressure Humidity
    00:00 +22°C° 0 mm 1 mps 708 mmHg 66%
    01:00 +22°C° 0 mm 1 mps 708 mmHg 66%
    02:00 +21°C° 0 mm 2 mps 708 mmHg 67%
    03:00 +21°C° 0 mm 1 mps 708 mmHg 70%
    04:00 +21°C° 0 mm 1 mps 708 mmHg 73%
    05:00 +18°C° 0 mm 0 mps 708 mmHg 76%
    06:00 +23°C° 0 mm 1 mps 708 mmHg 66%
    07:00 +26°C° 0 mm 1 mps 709 mmHg 56%
    08:00 +28°C° 0 mm 1 mps 709 mmHg 45%
    09:00 +31°C° 0 mm 2 mps 709 mmHg 38%
    10:00 +34°C° 0 mm 3 mps 709 mmHg 31%
    11:00 +37°C° 0 mm 3 mps 710 mmHg 24%
    12:00 +38°C° 0 mm 3 mps 709 mmHg 22%
    13:00 +39°C° 0 mm 3 mps 709 mmHg 19%
    14:00 +41°C° 0 mm 4 mps 708 mmHg 17%
    15:00 +38°C° 0 mm 4 mps 708 mmHg 22%
    16:00 +37°C° 0 mm 5 mps 708 mmHg 27%
    17:00 +35°C° 0 mm 6 mps 707 mmHg 33%
    18:00 +32°C° 0 mm 4 mps 707 mmHg 41%
    19:00 +29°C° 0 mm 3 mps 707 mmHg 50%
    20:00 +26°C° 0 mm 1 mps 707 mmHg 59%
    21:00 +25°C° 0 mm 1 mps 707 mmHg 62%
    22:00 +25°C° 0 mm 1 mps 707 mmHg 64%
    23:00 +24°C° 0 mm 1 mps 707 mmHg 66%

    Day after tomorrow, 24 August, Saturday

    Time Temperature Precipitation Wind Pressure Humidity
    00:00 +24°C° 0 mm 1 mps 707 mmHg 70%
    01:00 +23°C° 0 mm 1 mps 707 mmHg 73%
    02:00 +22°C° 0 mm 1 mps 707 mmHg 76%
    03:00 +22°C° 0 mm 1 mps 707 mmHg 79%
    04:00 +22°C° 0 mm 1 mps 707 mmHg 81%
    05:00 +22°C° 0 mm 1 mps 707 mmHg 84%
    06:00 +24°C° 0 mm 1 mps 708 mmHg 77%
    07:00 +25°C° 0 mm 2 mps 708 mmHg 70%
    08:00 +27°C° 0 mm 2 mps 709 mmHg 63%
    09:00 +29°C° 0 mm 3 mps 709 mmHg 55%
    10:00 +31°C° 0 mm 3 mps 709 mmHg 48%
    11:00 +34°C° 0 mm 3 mps 710 mmHg 40%
    12:00 +35°C° 0 mm 3 mps 710 mmHg 36%
    13:00 +36°C° 0 mm 4 mps 709 mmHg 32%
    14:00 +38°C° 0 mm 4 mps 709 mmHg 29%
    15:00 +37°C° 0 mm 4 mps 709 mmHg 32%
    16:00 +36°C° 0 mm 5 mps 709 mmHg 36%
    17:00 +35°C° 0 mm 5 mps 709 mmHg 39%
    18:00 +32°C° 0 mm 4 mps 709 mmHg 47%
    19:00 +29°C° 0 mm 3 mps 709 mmHg 56%
    20:00 +26°C° 0 mm 2 mps 709 mmHg 64%
    21:00 +25°C° 0 mm 2 mps 709 mmHg 64%
    22:00 +25°C° 0 mm 1 mps 709 mmHg 64%
    23:00 +24°C° 0 mm 1 mps 709 mmHg 64%

    25 August, Sunday

    Time Temperature Precipitation Wind Pressure Humidity
    00:00 +24°C° 0 mm 1 mps 709 mmHg 65%
    01:00 +23°C° 0 mm 1 mps 709 mmHg 65%
    02:00 +23°C° 0 mm 1 mps 709 mmHg 66%
    03:00 +23°C° 0 mm 1 mps 709 mmHg 68%
    04:00 +22°C° 0 mm 1 mps 709 mmHg 69%
    05:00 +22°C° 0 mm 1 mps 709 mmHg 70%
    06:00 +24°C° 0 mm 1 mps 709 mmHg 62%
    07:00 +27°C° 0 mm 1 mps 710 mmHg 53%
    08:00 +29°C° 0 mm 2 mps 711 mmHg 44%
    09:00 +31°C° 0 mm 2 mps 711 mmHg 39%
    10:00 +34°C° 0 mm 3 mps 711 mmHg 34%
    11:00 +35°C° 0 mm 3 mps 711 mmHg 29%
    12:00 +37°C° 0 mm 3 mps 711 mmHg 27%
    13:00 +38°C° 0 mm 4 mps 711 mmHg 25%
    14:00 +40°C° 0 mm 4 mps 711 mmHg 23%
    15:00 +39°C° 0 mm 5 mps 710 mmHg 24%
    16:00 +36°C° 0 mm 5 mps 710 mmHg 26%
    17:00 +35°C° 0 mm 6 mps 710 mmHg 28%
    18:00 +33°C° 0 mm 5 mps 710 mmHg 36%
    19:00 +29°C° 0 mm 3 mps 710 mmHg 44%
    20:00 +26°C° 0 mm 2 mps 710 mmHg 52%
    21:00 +25°C° 0 mm 2 mps 710 mmHg 50%
    22:00 +24°C° 0 mm 1 mps 710 mmHg 49%
    23:00 +24°C° 0 mm 1 mps 710 mmHg 48%

    26 August, Monday

    Time Temperature Precipitation Wind Pressure Humidity
    00:00 +24°C° 0 mm 1 mps 710 mmHg 47%
    01:00 +23°C° 0 mm 1 mps 709 mmHg 47%
    02:00 +23°C° 0 mm 1 mps 709 mmHg 46%
    03:00 +23°C° 0 mm 1 mps 709 mmHg 47%
    04:00 +23°C° 0 mm 1 mps 709 mmHg 47%
    05:00 +22°C° 0 mm 1 mps 709 mmHg 48%
    06:00 +25°C° 0 mm 2 mps 710 mmHg 43%
    07:00 +27°C° 0 mm 2 mps 711 mmHg 38%
    08:00 +30°C° 0 mm 2 mps 711 mmHg 33%
    09:00 +31°C° 0 mm 2 mps 711 mmHg 29%
    10:00 +34°C° 0 mm 3 mps 711 mmHg 26%
    11:00 +36°C° 0 mm 3 mps 711 mmHg 22%
    12:00 +37°C° 0 mm 3 mps 711 mmHg 22%
    13:00 +38°C° 0 mm 3 mps 711 mmHg 21%
    14:00 +38°C° 0 mm 4 mps 711 mmHg 20%
    15:00 +37°C° 0 mm 4 mps 710 mmHg 23%
    16:00 +36°C° 0 mm 5 mps 710 mmHg 26%
    17:00 +35°C° 0 mm 6 mps 710 mmHg 29%
    18:00 +32°C° 0 mm 5 mps 710 mmHg 37%
    19:00 +28°C° 0 mm 3 mps 710 mmHg 44%
    20:00 +26°C° 0 mm 2 mps 710 mmHg 52%
    21:00 +25°C° 0 mm 2 mps 710 mmHg 51%
    22:00 +24°C° 0 mm 1 mps 710 mmHg 49%
    23:00 +23°C° 0 mm 1 mps 710 mmHg 48%

    27 August, Tuesday

    Time Temperature Precipitation Wind Pressure Humidity
    00:00 +23°C° 0 mm 1 mps 710 mmHg 48%
    01:00 +23°C° 0 mm 1 mps 710 mmHg 47%
    02:00 +22°C° 0 mm 1 mps 710 mmHg 47%
    03:00 +22°C° 0 mm 1 mps 709 mmHg 49%
    04:00 +22°C° 0 mm 1 mps 709 mmHg 51%
    05:00 +21°C° 0 mm 1 mps 709 mmHg 53%
    06:00 +24°C° 0 mm 2 mps 710 mmHg 47%
    07:00 +26°C° 0 mm 2 mps 710 mmHg 42%
    08:00 +28°C° 0 mm 2 mps 711 mmHg 37%
    09:00 +30°C° 0 mm 2 mps 711 mmHg 33%
    10:00 +32°C° 0 mm 2 mps 711 mmHg 29%
    11:00 +35°C° 0 mm 2 mps 711 mmHg 25%
    12:00 +36°C° 0 mm 3 mps 711 mmHg 24%
    13:00 +37°C° 0 mm 3 mps 710 mmHg 23%
    14:00 +38°C° 0 mm 4 mps 710 mmHg 21%
    15:00 +36°C° 0 mm 4 mps 710 mmHg 26%
    16:00 +35°C° 0 mm 5 mps 710 mmHg 30%
    17:00 +34°C° 0 mm 6 mps 709 mmHg 35%
    18:00 +30°C° 0 mm 5 mps 709 mmHg 42%
    19:00 +28°C° 0 mm 3 mps 709 mmHg 50%
    20:00 +25°C° 0 mm 2 mps 709 mmHg 57%
    21:00 +24°C° 0 mm 2 mps 709 mmHg 56%
    22:00 +24°C° 0 mm 2 mps 709 mmHg 54%
    23:00 +23°C° 0 mm 2 mps 709 mmHg 53%
    Show more